Time,TemperatureF,DewpointF,PressureIn,WindDirection,WindDirectionDegrees,WindSpeedMPH,WindSpeedGustMPH,Humidity,HourlyPrecipIn,Conditions,Clouds,dailyrainin,SoftwareType,DateUTC
2013-02-19 00:00:00,35.1,-10.7,30.11,NW,312,0.0,0.0,13,0.00,,,0.00,LWC V2.11 B50,2013-02-19 07:00:00,
2013-02-19 00:06:00,34.1,-10.0,30.12,NW,312,0.0,0.0,14,0.00,,,0.00,LWC V2.11 B50,2013-02-19 07:06:00,
2013-02-19 00:11:00,33.3,-10.7,30.12,NW,312,0.0,0.0,14,0.00,,,0.00,LWC V2.11 B50,2013-02-19 07:11:00,
2013-02-19 00:16:00,32.7,-9.8,30.12,NW,312,0.0,0.0,15,0.00,,,0.00,LWC V2.11 B50,2013-02-19 07:16:00,
2013-02-19 00:21:00,32.3,-10.1,30.12,NW,312,0.0,0.0,15,0.00,,,0.00,LWC V2.11 B50,2013-02-19 07:21:00,
2013-02-19 00:26:00,31.9,-9.1,30.13,NW,312,0.0,0.0,16,0.00,,,0.00,LWC V2.11 B50,2013-02-19 07:26:00,
2013-02-19 00:31:00,31.5,-9.5,30.13,NW,312,0.0,0.0,16,0.00,,,0.00,LWC V2.11 B50,2013-02-19 07:31:00,
2013-02-19 00:36:00,31.0,-8.6,30.13,NW,312,0.0,0.0,17,0.00,,,0.00,LWC V2.11 B50,2013-02-19 07:36:00,
2013-02-19 00:41:00,30.8,-8.8,30.13,NW,312,0.0,0.0,17,0.00,,,0.00,LWC V2.11 B50,2013-02-19 07:41:00,
2013-02-19 00:46:00,30.6,-10.2,30.13,NW,312,0.0,0.0,16,0.00,,,0.00,LWC V2.11 B50,2013-02-19 07:46:00,
2013-02-19 00:51:00,30.2,-9.3,30.14,NW,312,0.0,0.0,17,0.00,,,0.00,LWC V2.11 B50,2013-02-19 07:51:00,
2013-02-19 00:56:00,29.9,-9.5,30.14,NW,312,0.0,0.0,17,0.00,,,0.00,LWC V2.11 B50,2013-02-19 07:56:00,
2013-02-19 01:01:00,29.6,-9.8,30.14,NW,312,0.0,0.0,17,0.00,,,0.00,LWC V2.11 B50,2013-02-19 08:01:00,
2013-02-19 01:06:00,29.3,-10.0,30.14,NW,312,0.0,1.0,17,0.00,,,0.00,LWC V2.11 B50,2013-02-19 08:06:00,
2013-02-19 01:11:00,29.4,-10.0,30.14,NW,312,0.0,1.0,17,0.00,,,0.00,LWC V2.11 B50,2013-02-19 08:11:00,
2013-02-19 01:16:00,29.6,-9.8,30.14,NW,321,0.0,3.0,17,0.00,,,0.00,LWC V2.11 B50,2013-02-19 08:16:00,
2013-02-19 01:21:00,29.5,-11.1,30.14,NW,312,0.0,0.0,16,0.00,,,0.00,LWC V2.11 B50,2013-02-19 08:21:00,
2013-02-19 01:26:00,28.9,-11.6,30.14,NW,315,0.0,0.0,16,0.00,,,0.00,LWC V2.11 B50,2013-02-19 08:26:00,
2013-02-19 01:31:00,28.4,-10.8,30.14,NW,315,0.0,0.0,17,0.00,,,0.00,LWC V2.11 B50,2013-02-19 08:31:00,
2013-02-19 01:36:00,28.0,-10.0,30.14,NNW,334,0.0,1.0,18,0.00,,,0.00,LWC V2.11 B50,2013-02-19 08:36:00,
2013-02-19 01:41:00,27.8,-10.1,30.14,NW,305,0.0,1.0,18,0.00,,,0.00,LWC V2.11 B50,2013-02-19 08:41:00,
2013-02-19 01:46:00,27.9,-11.2,30.14,NNW,346,0.0,0.0,17,0.00,,,0.00,LWC V2.11 B50,2013-02-19 08:46:00,
2013-02-19 01:51:00,28.3,-10.9,30.14,NNW,331,0.0,1.0,17,0.00,,,0.00,LWC V2.11 B50,2013-02-19 08:51:00,
2013-02-19 01:56:00,28.6,-10.6,30.14,WNW,286,0.0,2.0,17,0.00,,,0.00,LWC V2.11 B50,2013-02-19 08:56:00,
2013-02-19 02:01:00,29.1,-10.2,30.14,NW,321,0.0,4.0,17,0.00,,,0.00,LWC V2.11 B50,2013-02-19 09:01:00,
2013-02-19 02:06:00,29.7,-9.7,30.13,WNW,300,2.0,2.0,17,0.00,,,0.00,LWC V2.11 B50,2013-02-19 09:06:00,
2013-02-19 02:11:00,30.1,-9.4,30.13,WNW,291,0.0,2.0,17,0.00,,,0.00,LWC V2.11 B50,2013-02-19 09:11:00,
2013-02-19 02:16:00,30.6,-9.0,30.13,NW,309,0.0,4.0,17,0.00,,,0.00,LWC V2.11 B50,2013-02-19 09:16:00,
2013-02-19 02:21:00,31.5,-8.2,30.13,NW,305,3.0,4.0,17,0.00,,,0.00,LWC V2.11 B50,2013-02-19 09:21:00,
2013-02-19 02:26:00,32.6,-7.3,30.13,NW,307,1.0,3.0,17,0.00,,,0.00,LWC V2.11 B50,2013-02-19 09:26:00,
2013-02-19 02:31:00,33.3,-8.0,30.13,NNW,342,1.0,2.0,16,0.00,,,0.00,LWC V2.11 B50,2013-02-19 09:31:00,
2013-02-19 02:36:00,33.4,-7.9,30.13,NW,323,0.0,4.0,16,0.00,,,0.00,LWC V2.11 B50,2013-02-19 09:36:00,
2013-02-19 02:41:00,33.2,-8.1,30.13,NW,309,0.0,1.0,16,0.00,,,0.00,LWC V2.11 B50,2013-02-19 09:41:00,
2013-02-19 02:46:00,32.6,-8.6,30.13,NNE,28,0.0,1.0,16,0.00,,,0.00,LWC V2.11 B50,2013-02-19 09:46:00,
2013-02-19 02:51:00,31.7,-9.3,30.13,NNW,347,0.0,0.0,16,0.00,,,0.00,LWC V2.11 B50,2013-02-19 09:51:00,
2013-02-19 02:56:00,31.1,-9.8,30.13,NNW,333,0.0,0.0,16,0.00,,,0.00,LWC V2.11 B50,2013-02-19 09:56:00,
2013-02-19 03:01:00,30.8,-8.8,30.12,NW,323,2.0,2.0,17,0.00,,,0.00,LWC V2.11 B50,2013-02-19 10:01:00,
2013-02-19 03:06:00,31.0,-8.6,30.12,NW,317,0.0,1.0,17,0.00,,,0.00,LWC V2.11 B50,2013-02-19 10:06:00,
2013-02-19 03:11:00,30.7,-8.9,30.13,NW,313,0.0,1.0,17,0.00,,,0.00,LWC V2.11 B50,2013-02-19 10:11:00,
2013-02-19 03:16:00,30.3,-8.1,30.13,NW,313,0.0,0.0,18,0.00,,,0.00,LWC V2.11 B50,2013-02-19 10:16:00,
2013-02-19 03:21:00,29.9,-8.4,30.13,NW,304,0.0,1.0,18,0.00,,,0.00,LWC V2.11 B50,2013-02-19 10:21:00,
2013-02-19 03:26:00,29.7,-7.4,30.12,NNW,327,2.0,4.0,19,0.00,,,0.00,LWC V2.11 B50,2013-02-19 10:26:00,
2013-02-19 03:31:00,30.3,-6.9,30.12,West,278,3.0,4.0,19,0.00,,,0.00,LWC V2.11 B50,2013-02-19 10:31:00,
2013-02-19 03:36:00,31.2,-6.2,30.12,NW,311,1.0,5.0,19,0.00,,,0.00,LWC V2.11 B50,2013-02-19 10:36:00,
2013-02-19 03:41:00,31.5,-7.1,30.13,NW,305,1.0,4.0,18,0.00,,,0.00,LWC V2.11 B50,2013-02-19 10:41:00,
2013-02-19 03:46:00,31.6,-5.9,30.13,NW,313,1.0,4.0,19,0.00,,,0.00,LWC V2.11 B50,2013-02-19 10:46:00,
2013-02-19 03:51:00,31.7,-5.8,30.12,WNW,303,2.0,4.0,19,0.00,,,0.00,LWC V2.11 B50,2013-02-19 10:51:00,
2013-02-19 03:56:00,32.0,-5.5,30.12,WNW,300,1.0,3.0,19,0.00,,,0.00,LWC V2.11 B50,2013-02-19 10:56:00,
2013-02-19 04:01:00,32.2,-5.4,30.12,NW,313,0.0,2.0,19,0.00,,,0.00,LWC V2.11 B50,2013-02-19 11:01:00,
2013-02-19 04:06:00,31.9,-5.6,30.12,NW,319,0.0,1.0,19,0.00,,,0.00,LWC V2.11 B50,2013-02-19 11:06:00,
2013-02-19 04:11:00,31.4,-6.0,30.12,NW,319,0.0,0.0,19,0.00,,,0.00,LWC V2.11 B50,2013-02-19 11:11:00,
2013-02-19 04:16:00,30.9,-6.4,30.12,NNW,337,0.0,1.0,19,0.00,,,0.00,LWC V2.11 B50,2013-02-19 11:16:00,
2013-02-19 04:21:00,30.4,-5.8,30.12,NNW,347,0.0,1.0,20,0.00,,,0.00,LWC V2.11 B50,2013-02-19 11:21:00,
2013-02-19 04:26:00,30.6,-5.6,30.12,NNW,334,1.0,3.0,20,0.00,,,0.00,LWC V2.11 B50,2013-02-19 11:26:00,
2013-02-19 04:31:00,31.2,-5.1,30.12,NW,310,3.0,4.0,20,0.00,,,0.00,LWC V2.11 B50,2013-02-19 11:31:00,
2013-02-19 04:36:00,31.6,-5.9,30.12,NW,314,1.0,6.0,19,0.00,,,0.00,LWC V2.11 B50,2013-02-19 11:36:00,
2013-02-19 04:41:00,31.7,-5.8,30.12,WNW,292,2.0,4.0,19,0.00,,,0.00,LWC V2.11 B50,2013-02-19 11:41:00,
2013-02-19 04:46:00,31.7,-4.7,30.12,WNW,294,0.0,2.0,20,0.00,,,0.00,LWC V2.11 B50,2013-02-19 11:46:00,
2013-02-19 04:51:00,31.4,-5.0,30.12,NW,325,2.0,4.0,20,0.00,,,0.00,LWC V2.11 B50,2013-02-19 11:51:00,
2013-02-19 04:56:00,31.2,-5.1,30.11,West,276,0.0,2.0,20,0.00,,,0.00,LWC V2.11 B50,2013-02-19 11:56:00,
2013-02-19 05:01:00,30.9,-5.4,30.11,WNW,291,0.0,0.0,20,0.00,,,0.00,LWC V2.11 B50,2013-02-19 12:01:00,
2013-02-19 05:06:00,30.5,-5.7,30.11,NNW,338,0.0,2.0,20,0.00,,,0.00,LWC V2.11 B50,2013-02-19 12:06:00,
2013-02-19 05:11:00,30.1,-5.1,30.11,North,355,0.0,1.0,21,0.00,,,0.00,LWC V2.11 B50,2013-02-19 12:11:00,
2013-02-19 05:16:00,29.6,-5.5,30.11,NW,320,0.0,0.0,21,0.00,,,0.00,LWC V2.11 B50,2013-02-19 12:16:00,
2013-02-19 05:21:00,29.2,-4.9,30.12,NW,321,0.0,0.0,22,0.00,,,0.00,LWC V2.11 B50,2013-02-19 12:21:00,
2013-02-19 05:26:00,28.9,-5.1,30.12,NW,321,0.0,0.0,22,0.00,,,0.00,LWC V2.11 B50,2013-02-19 12:26:00,
2013-02-19 05:31:00,28.6,-5.4,30.12,NW,321,0.0,1.0,22,0.00,,,0.00,LWC V2.11 B50,2013-02-19 12:31:00,
2013-02-19 05:36:00,28.6,-4.4,30.12,NW,318,0.0,0.0,23,0.00,,,0.00,LWC V2.11 B50,2013-02-19 12:36:00,
2013-02-19 05:41:00,28.8,-4.3,30.12,NW,318,0.0,0.0,23,0.00,,,0.00,LWC V2.11 B50,2013-02-19 12:41:00,
2013-02-19 05:46:00,28.7,-5.3,30.12,NW,318,0.0,0.0,22,0.00,,,0.00,LWC V2.11 B50,2013-02-19 12:46:00,
2013-02-19 05:51:00,28.4,-4.6,30.11,NW,318,0.0,0.0,23,0.00,,,0.00,LWC V2.11 B50,2013-02-19 12:51:00,
2013-02-19 05:56:00,28.0,-5.0,30.11,NW,318,0.0,0.0,23,0.00,,,0.00,LWC V2.11 B50,2013-02-19 12:56:00,
2013-02-19 06:01:00,27.6,-4.4,30.11,NW,318,0.0,0.0,24,0.00,,,0.00,LWC V2.11 B50,2013-02-19 13:01:00,
2013-02-19 06:06:00,27.3,-4.7,30.11,NW,316,0.0,1.0,24,0.00,,,0.00,LWC V2.11 B50,2013-02-19 13:06:00,
2013-02-19 06:11:00,27.8,-4.2,30.11,NW,316,0.0,2.0,24,0.00,,,0.00,LWC V2.11 B50,2013-02-19 13:11:00,
2013-02-19 06:16:00,28.3,-3.8,30.11,NW,317,0.0,2.0,24,0.00,,,0.00,LWC V2.11 B50,2013-02-19 13:16:00,
2013-02-19 06:21:00,28.2,-4.8,30.12,NW,317,0.0,0.0,23,0.00,,,0.00,LWC V2.11 B50,2013-02-19 13:21:00,
2013-02-19 06:26:00,27.9,-5.0,30.12,WNW,299,0.0,2.0,23,0.00,,,0.00,LWC V2.11 B50,2013-02-19 13:26:00,
2013-02-19 06:31:00,27.9,-5.0,30.12,NW,311,2.0,5.0,23,0.00,,,0.00,LWC V2.11 B50,2013-02-19 13:31:00,
2013-02-19 06:36:00,28.1,-4.9,30.12,WNW,300,2.0,3.0,23,0.00,,,0.00,LWC V2.11 B50,2013-02-19 13:36:00,
2013-02-19 06:41:00,28.4,-4.6,30.12,NNW,336,0.0,2.0,23,0.00,,,0.00,LWC V2.11 B50,2013-02-19 13:41:00,
2013-02-19 06:46:00,28.7,-5.3,30.12,NW,326,0.0,1.0,22,0.00,,,0.00,LWC V2.11 B50,2013-02-19 13:46:00,
2013-02-19 06:51:00,28.9,-5.1,30.11,WNW,287,0.0,3.0,22,0.00,,,0.00,LWC V2.11 B50,2013-02-19 13:51:00,
2013-02-19 06:56:00,29.1,-4.9,30.11,WNW,290,1.0,3.0,22,0.00,,,0.00,LWC V2.11 B50,2013-02-19 13:56:00,
2013-02-19 07:01:00,29.2,-4.9,30.11,NW,318,0.0,0.0,22,0.00,,,0.00,LWC V2.11 B50,2013-02-19 14:01:00,
2013-02-19 07:06:00,29.4,-4.7,30.11,NW,326,0.0,0.0,22,0.00,,,0.00,LWC V2.11 B50,2013-02-19 14:06:00,
2013-02-19 07:11:00,29.7,-4.4,30.12,NW,326,0.0,0.0,22,0.00,,,0.00,LWC V2.11 B50,2013-02-19 14:11:00,
2013-02-19 07:16:00,30.1,-4.1,30.12,WNW,297,0.0,2.0,22,0.00,,,0.00,LWC V2.11 B50,2013-02-19 14:16:00,
2013-02-19 07:21:00,30.6,-4.6,30.12,NW,325,0.0,0.0,21,0.00,,,0.00,LWC V2.11 B50,2013-02-19 14:21:00,
2013-02-19 07:26:00,31.1,-4.2,30.12,NNW,346,0.0,0.0,21,0.00,,,0.00,LWC V2.11 B50,2013-02-19 14:26:00,
2013-02-19 07:31:00,31.5,-3.9,30.12,NW,313,0.0,1.0,21,0.00,,,0.00,LWC V2.11 B50,2013-02-19 14:31:00,
2013-02-19 07:36:00,31.9,-3.5,30.12,WNW,300,0.0,1.0,21,0.00,,,0.00,LWC V2.11 B50,2013-02-19 14:36:00,
2013-02-19 07:41:00,32.5,-3.0,30.12,NNE,22,0.0,1.0,21,0.00,,,0.00,LWC V2.11 B50,2013-02-19 14:41:00,
2013-02-19 07:46:00,33.2,-2.5,30.12,North,355,0.0,0.0,21,0.00,,,0.00,LWC V2.11 B50,2013-02-19 14:46:00,
2013-02-19 07:51:00,33.7,-2.0,30.12,NNE,15,1.0,2.0,21,0.00,,,0.00,LWC V2.11 B50,2013-02-19 14:51:00,
2013-02-19 07:56:00,33.8,-1.9,30.13,North,355,0.0,1.0,21,0.00,,,0.00,LWC V2.11 B50,2013-02-19 14:56:00,
2013-02-19 08:01:00,33.7,-2.0,30.13,NNE,14,0.0,1.0,21,0.00,,,0.00,LWC V2.11 B50,2013-02-19 15:01:00,
2013-02-19 08:06:00,33.7,-2.0,30.13,NNE,32,0.0,0.0,21,0.00,,,0.00,LWC V2.11 B50,2013-02-19 15:06:00,
2013-02-19 08:11:00,33.5,-1.2,30.13,NNE,32,0.0,0.0,22,0.00,,,0.00,LWC V2.11 B50,2013-02-19 15:11:00,
2013-02-19 08:16:00,33.4,-1.3,30.13,NNE,32,0.0,0.0,22,0.00,,,0.00,LWC V2.11 B50,2013-02-19 15:16:00,
2013-02-19 08:21:00,33.5,-1.2,30.13,NNE,33,0.0,1.0,22,0.00,,,0.00,LWC V2.11 B50,2013-02-19 15:21:00,
2013-02-19 08:26:00,33.7,-1.1,30.12,NE,46,0.0,1.0,22,0.00,,,0.00,LWC V2.11 B50,2013-02-19 15:26:00,
2013-02-19 08:31:00,33.9,-0.9,30.12,NNE,31,2.0,3.0,22,0.00,,,0.00,LWC V2.11 B50,2013-02-19 15:31:00,
2013-02-19 08:36:00,34.3,-0.5,30.12,NE,42,6.0,6.0,22,0.00,,,0.00,LWC V2.11 B50,2013-02-19 15:36:00,
2013-02-19 08:41:00,34.8,-0.1,30.12,NNE,27,7.0,7.0,22,0.00,,,0.00,LWC V2.11 B50,2013-02-19 15:41:00,
2013-02-19 08:46:00,34.8,-0.1,30.12,North,0,0.0,4.0,22,0.00,,,0.00,LWC V2.11 B50,2013-02-19 15:46:00,
2013-02-19 08:51:00,35.1,0.1,30.12,NE,46,3.0,3.0,22,0.00,,,0.00,LWC V2.11 B50,2013-02-19 15:51:00,
2013-02-19 08:56:00,35.2,-0.8,30.12,ENE,63,1.0,4.0,21,0.00,,,0.00,LWC V2.11 B50,2013-02-19 15:56:00,
2013-02-19 09:01:00,35.5,-0.5,30.12,NNW,336,0.0,4.0,21,0.00,,,0.00,LWC V2.11 B50,2013-02-19 16:01:00,
2013-02-19 09:06:00,36.4,0.2,30.12,ENE,61,3.0,5.0,21,0.00,,,0.00,LWC V2.11 B50,2013-02-19 16:06:00,
2013-02-19 09:11:00,36.9,-0.4,30.12,NE,46,5.0,5.0,20,0.00,,,0.00,LWC V2.11 B50,2013-02-19 16:11:00,
2013-02-19 09:16:00,37.3,0.0,30.12,NE,35,1.0,6.0,20,0.00,,,0.00,LWC V2.11 B50,2013-02-19 16:16:00,
2013-02-19 09:21:00,37.5,0.1,30.12,NE,42,3.0,5.0,20,0.00,,,0.00,LWC V2.11 B50,2013-02-19 16:21:00,
2013-02-19 09:26:00,37.4,0.0,30.11,NNE,20,0.0,3.0,20,0.00,,,0.00,LWC V2.11 B50,2013-02-19 16:26:00,
2013-02-19 09:31:00,37.3,0.0,30.11,NE,40,2.0,7.0,20,0.00,,,0.00,LWC V2.11 B50,2013-02-19 16:31:00,
2013-02-19 09:36:00,37.3,0.0,30.11,NE,53,2.0,2.0,20,0.00,,,0.00,LWC V2.11 B50,2013-02-19 16:36:00,
2013-02-19 09:41:00,37.5,0.1,30.11,NE,50,2.0,6.0,20,0.00,,,0.00,LWC V2.11 B50,2013-02-19 16:41:00,
2013-02-19 09:46:00,37.6,0.2,30.10,NE,55,2.0,5.0,20,0.00,,,0.00,LWC V2.11 B50,2013-02-19 16:46:00,
2013-02-19 09:51:00,38.1,-0.5,30.10,NNE,18,0.0,4.0,19,0.00,,,0.00,LWC V2.11 B50,2013-02-19 16:51:00,
2013-02-19 09:56:00,39.1,0.4,30.10,NNE,32,1.0,5.0,19,0.00,,,0.00,LWC V2.11 B50,2013-02-19 16:56:00,
2013-02-19 10:01:00,39.8,-0.2,30.09,NE,47,5.0,6.0,18,0.00,,,0.00,LWC V2.11 B50,2013-02-19 17:01:00,
2013-02-19 10:06:00,40.5,0.4,30.09,ENE,65,0.0,4.0,18,0.00,,,0.00,LWC V2.11 B50,2013-02-19 17:06:00,
2013-02-19 10:11:00,41.2,1.0,30.09,ENE,69,0.0,4.0,18,0.00,,,0.00,LWC V2.11 B50,2013-02-19 17:11:00,
2013-02-19 10:16:00,41.7,1.4,30.09,NE,55,2.0,4.0,18,0.00,,,0.00,LWC V2.11 B50,2013-02-19 17:16:00,
2013-02-19 10:21:00,41.9,0.3,30.09,NNW,342,1.0,5.0,17,0.00,,,0.00,LWC V2.11 B50,2013-02-19 17:21:00,
2013-02-19 10:26:00,41.8,1.4,30.09,ENE,69,0.0,3.0,18,0.00,,,0.00,LWC V2.11 B50,2013-02-19 17:26:00,
2013-02-19 10:31:00,42.3,0.6,30.08,East,82,1.0,4.0,17,0.00,,,0.00,LWC V2.11 B50,2013-02-19 17:31:00,
2013-02-19 10:36:00,42.7,1.0,30.08,NE,40,1.0,5.0,17,0.00,,,0.00,LWC V2.11 B50,2013-02-19 17:36:00,
2013-02-19 10:41:00,42.7,1.0,30.07,NE,55,0.0,6.0,17,0.00,,,0.00,LWC V2.11 B50,2013-02-19 17:41:00,
2013-02-19 10:46:00,43.1,1.3,30.07,ENE,73,0.0,4.0,17,0.00,,,0.00,LWC V2.11 B50,2013-02-19 17:46:00,
2013-02-19 10:51:00,43.7,1.8,30.07,NE,36,0.0,0.0,17,0.00,,,0.00,LWC V2.11 B50,2013-02-19 17:51:00,
2013-02-19 10:56:00,44.2,0.9,30.06,NE,55,1.0,3.0,16,0.00,,,0.00,LWC V2.11 B50,2013-02-19 17:56:00,
2013-02-19 11:01:00,45.0,0.2,30.06,ENE,66,0.0,3.0,15,0.00,,,0.00,LWC V2.11 B50,2013-02-19 18:01:00,
2013-02-19 11:06:00,45.8,0.8,30.05,ENE,58,2.0,4.0,15,0.00,,,0.00,LWC V2.11 B50,2013-02-19 18:06:00,
2013-02-19 11:11:00,46.6,0.0,30.04,NNE,13,0.0,5.0,14,0.00,,,0.00,LWC V2.11 B50,2013-02-19 18:11:00,
2013-02-19 11:16:00,47.4,-0.9,30.04,North,0,0.0,4.0,13,0.00,,,0.00,LWC V2.11 B50,2013-02-19 18:16:00,
2013-02-19 11:21:00,47.7,-0.7,30.03,NE,40,2.0,2.0,13,0.00,,,0.00,LWC V2.11 B50,2013-02-19 18:21:00,
2013-02-19 11:26:00,48.1,-0.4,30.03,East,90,0.0,4.0,13,0.00,,,0.00,LWC V2.11 B50,2013-02-19 18:26:00,
2013-02-19 11:31:00,48.7,-1.6,30.03,NNE,31,1.0,2.0,12,0.00,,,0.00,LWC V2.11 B50,2013-02-19 18:31:00,
2013-02-19 11:36:00,49.2,0.5,30.03,NNW,343,1.0,3.0,13,0.00,,,0.00,LWC V2.11 B50,2013-02-19 18:36:00,
2013-02-19 11:41:00,49.7,-0.8,30.02,NW,324,0.0,4.0,12,0.00,,,0.00,LWC V2.11 B50,2013-02-19 18:41:00,
2013-02-19 11:46:00,50.4,-0.3,30.02,NE,42,0.0,0.0,12,0.00,,,0.00,LWC V2.11 B50,2013-02-19 18:46:00,
2013-02-19 11:51:00,51.1,-1.5,30.01,East,93,0.0,2.0,11,0.00,,,0.00,LWC V2.11 B50,2013-02-19 18:51:00,
2013-02-19 11:56:00,51.7,-1.1,30.01,SE,125,2.0,2.0,11,0.00,,,0.00,LWC V2.11 B50,2013-02-19 18:56:00,
2013-02-19 12:01:00,52.1,-0.8,30.00,ENE,74,0.0,3.0,11,0.00,,,0.00,LWC V2.11 B50,2013-02-19 19:01:00,
2013-02-19 12:06:00,52.5,-0.5,30.00,SSE,165,0.0,2.0,11,0.00,,,0.00,LWC V2.11 B50,2013-02-19 19:06:00,
2013-02-19 12:11:00,53.0,-0.1,29.99,NE,46,0.0,2.0,11,0.00,,,0.00,LWC V2.11 B50,2013-02-19 19:11:00,
2013-02-19 12:16:00,53.5,0.3,29.99,South,184,1.0,2.0,11,0.00,,,0.00,LWC V2.11 B50,2013-02-19 19:16:00,
2013-02-19 12:21:00,54.0,0.7,29.98,SSW,198,0.0,0.0,11,0.00,,,0.00,LWC V2.11 B50,2013-02-19 19:21:00,
2013-02-19 12:26:00,54.4,1.0,29.98,SSE,161,2.0,6.0,11,0.00,,,0.00,LWC V2.11 B50,2013-02-19 19:26:00,
2013-02-19 12:31:00,54.2,0.9,29.97,South,169,2.0,6.0,11,0.00,,,0.00,LWC V2.11 B50,2013-02-19 19:31:00,
2013-02-19 12:36:00,54.5,1.1,29.96,SSW,200,0.0,2.0,11,0.00,,,0.00,LWC V2.11 B50,2013-02-19 19:36:00,
2013-02-19 12:41:00,55.0,1.5,29.96,SSE,166,0.0,7.0,11,0.00,,,0.00,LWC V2.11 B50,2013-02-19 19:41:00,
2013-02-19 12:46:00,55.2,1.6,29.95,ESE,110,2.0,2.0,11,0.00,,,0.00,LWC V2.11 B50,2013-02-19 19:46:00,
2013-02-19 12:51:00,55.3,1.7,29.95,South,188,0.0,5.0,11,0.00,,,0.00,LWC V2.11 B50,2013-02-19 19:51:00,
2013-02-19 12:56:00,55.0,1.5,29.94,South,191,5.0,5.0,11,0.00,,,0.00,LWC V2.11 B50,2013-02-19 19:56:00,
2013-02-19 13:01:00,55.1,3.4,29.94,ESE,119,1.0,2.0,12,0.00,,,0.00,LWC V2.11 B50,2013-02-19 20:01:00,
2013-02-19 13:06:00,55.8,2.1,29.93,SSW,207,1.0,2.0,11,0.00,,,0.00,LWC V2.11 B50,2013-02-19 20:06:00,
2013-02-19 13:11:00,56.5,2.6,29.93,SSE,156,2.0,6.0,11,0.00,,,0.00,LWC V2.11 B50,2013-02-19 20:11:00,
2013-02-19 13:16:00,56.6,2.7,29.92,SSE,153,2.0,7.0,11,0.00,,,0.00,LWC V2.11 B50,2013-02-19 20:16:00,
2013-02-19 13:21:00,56.9,3.0,29.92,SSW,193,2.0,6.0,11,0.00,,,0.00,LWC V2.11 B50,2013-02-19 20:21:00,
2013-02-19 13:26:00,57.3,3.3,29.92,South,186,6.0,8.0,11,0.00,,,0.00,LWC V2.11 B50,2013-02-19 20:26:00,
2013-02-19 13:31:00,57.6,3.5,29.91,SSE,147,4.0,6.0,11,0.00,,,0.00,LWC V2.11 B50,2013-02-19 20:31:00,
2013-02-19 13:36:00,58.4,4.1,29.90,South,183,2.0,9.0,11,0.00,,,0.00,LWC V2.11 B50,2013-02-19 20:36:00,
2013-02-19 13:41:00,59.0,4.6,29.90,SSE,156,9.0,12.0,11,0.00,,,0.00,LWC V2.11 B50,2013-02-19 20:41:00,
2013-02-19 13:46:00,58.9,4.5,29.90,South,175,4.0,5.0,11,0.00,,,0.00,LWC V2.11 B50,2013-02-19 20:46:00,
2013-02-19 13:51:00,59.2,4.7,29.89,South,178,0.0,6.0,11,0.00,,,0.00,LWC V2.11 B50,2013-02-19 20:51:00,
2013-02-19 13:57:00,59.4,4.9,29.89,SSW,209,1.0,5.0,11,0.00,,,0.00,LWC V2.11 B50,2013-02-19 20:57:00,
2013-02-19 14:02:00,59.7,5.1,29.88,SSW,192,3.0,8.0,11,0.00,,,0.00,LWC V2.11 B50,2013-02-19 21:02:00,
2013-02-19 14:07:00,60.0,5.4,29.88,SSE,165,2.0,6.0,11,0.00,,,0.00,LWC V2.11 B50,2013-02-19 21:07:00,
2013-02-19 14:12:00,60.0,5.4,29.88,SSE,152,6.0,9.0,11,0.00,,,0.00,LWC V2.11 B50,2013-02-19 21:12:00,
2013-02-19 14:17:00,60.0,5.4,29.87,South,180,1.0,7.0,11,0.00,,,0.00,LWC V2.11 B50,2013-02-19 21:17:00,
2013-02-19 14:22:00,59.9,5.3,29.86,SSW,198,6.0,12.0,11,0.00,,,0.00,LWC V2.11 B50,2013-02-19 21:22:00,
2013-02-19 14:27:00,59.8,5.2,29.86,SSW,207,6.0,9.0,11,0.00,,,0.00,LWC V2.11 B50,2013-02-19 21:27:00,
2013-02-19 14:32:00,60.0,5.4,29.86,SSE,153,4.0,11.0,11,0.00,,,0.00,LWC V2.11 B50,2013-02-19 21:32:00,
2013-02-19 14:37:00,59.4,4.9,29.85,SSE,159,2.0,9.0,11,0.00,,,0.00,LWC V2.11 B50,2013-02-19 21:37:00,
2013-02-19 14:42:00,58.1,5.8,29.85,South,190,4.0,7.0,12,0.00,,,0.00,LWC V2.11 B50,2013-02-19 21:42:00,
2013-02-19 14:47:00,57.8,5.5,29.85,WSW,242,3.0,6.0,12,0.00,,,0.00,LWC V2.11 B50,2013-02-19 21:47:00,
2013-02-19 14:52:00,58.3,5.9,29.85,SSW,193,4.0,8.0,12,0.00,,,0.00,LWC V2.11 B50,2013-02-19 21:52:00,
2013-02-19 14:57:00,58.5,4.2,29.84,WSW,247,0.0,5.0,11,0.00,,,0.00,LWC V2.11 B50,2013-02-19 21:57:00,
2013-02-19 15:02:00,58.8,6.3,29.84,SW,223,3.0,10.0,12,0.00,,,0.00,LWC V2.11 B50,2013-02-19 22:02:00,
2013-02-19 15:07:00,59.3,4.8,29.83,SW,216,8.0,13.0,11,0.00,,,0.00,LWC V2.11 B50,2013-02-19 22:07:00,
2013-02-19 15:12:00,59.3,4.8,29.83,SSW,202,4.0,11.0,11,0.00,,,0.00,LWC V2.11 B50,2013-02-19 22:12:00,
2013-02-19 15:17:00,59.3,4.8,29.83,SSE,163,5.0,11.0,11,0.00,,,0.00,LWC V2.11 B50,2013-02-19 22:17:00,
2013-02-19 15:22:00,59.3,4.8,29.82,South,171,8.0,9.0,11,0.00,,,0.00,LWC V2.11 B50,2013-02-19 22:22:00,
2013-02-19 15:27:00,59.5,6.9,29.82,SW,228,0.0,6.0,12,0.00,,,0.00,LWC V2.11 B50,2013-02-19 22:27:00,
2013-02-19 15:32:00,59.7,5.1,29.82,SSW,194,4.0,11.0,11,0.00,,,0.00,LWC V2.11 B50,2013-02-19 22:32:00,
2013-02-19 15:37:00,59.4,4.9,29.82,SW,225,2.0,3.0,11,0.00,,,0.00,LWC V2.11 B50,2013-02-19 22:37:00,
2013-02-19 15:42:00,59.2,4.7,29.82,SW,214,1.0,7.0,11,0.00,,,0.00,LWC V2.11 B50,2013-02-19 22:42:00,
2013-02-19 15:47:00,59.3,4.8,29.82,SSE,157,4.0,5.0,11,0.00,,,0.00,LWC V2.11 B50,2013-02-19 22:47:00,
2013-02-19 15:52:00,59.3,4.8,29.81,SSW,205,0.0,8.0,11,0.00,,,0.00,LWC V2.11 B50,2013-02-19 22:52:00,
2013-02-19 15:57:00,59.3,6.7,29.81,SSW,198,1.0,5.0,12,0.00,,,0.00,LWC V2.11 B50,2013-02-19 22:57:00,
2013-02-19 16:02:00,59.2,6.6,29.81,South,169,2.0,5.0,12,0.00,,,0.00,LWC V2.11 B50,2013-02-19 23:02:00,
2013-02-19 16:07:00,59.5,6.9,29.80,SSW,196,6.0,6.0,12,0.00,,,0.00,LWC V2.11 B50,2013-02-19 23:07:00,
2013-02-19 16:12:00,59.5,6.9,29.80,WSW,241,6.0,12.0,12,0.00,,,0.00,LWC V2.11 B50,2013-02-19 23:12:00,
2013-02-19 16:17:00,59.6,7.0,29.79,SSW,206,3.0,7.0,12,0.00,,,0.00,LWC V2.11 B50,2013-02-19 23:17:00,
2013-02-19 16:22:00,59.9,9.0,29.79,South,189,4.0,7.0,13,0.00,,,0.00,LWC V2.11 B50,2013-02-19 23:22:00,
2013-02-19 16:27:00,60.0,9.0,29.79,SSW,210,1.0,6.0,13,0.00,,,0.00,LWC V2.11 B50,2013-02-19 23:27:00,
2013-02-19 16:32:00,60.0,10.7,29.79,South,173,5.0,7.0,14,0.00,,,0.00,LWC V2.11 B50,2013-02-19 23:32:00,
2013-02-19 16:37:00,59.6,10.4,29.79,SSW,211,2.0,11.0,14,0.00,,,0.00,LWC V2.11 B50,2013-02-19 23:37:00,
2013-02-19 16:42:00,59.3,10.1,29.79,SSW,205,2.0,12.0,14,0.00,,,0.00,LWC V2.11 B50,2013-02-19 23:42:00,
2013-02-19 16:47:00,59.0,11.4,29.79,SE,144,9.0,15.0,15,0.00,,,0.00,LWC V2.11 B50,2013-02-19 23:47:00,
2013-02-19 16:52:00,58.6,12.6,29.79,WSW,240,3.0,10.0,16,0.00,,,0.00,LWC V2.11 B50,2013-02-19 23:52:00,
2013-02-19 16:57:00,58.2,13.6,29.79,SSW,205,2.0,18.0,17,0.00,,,0.00,LWC V2.11 B50,2013-02-19 23:57:00,
2013-02-19 17:02:00,57.8,14.6,29.79,South,187,6.0,16.0,18,0.00,,,0.00,LWC V2.11 B50,2013-02-20 00:02:00,
2013-02-19 17:07:00,57.5,14.3,29.79,SSE,161,10.0,13.0,18,0.00,,,0.00,LWC V2.11 B50,2013-02-20 00:07:00,
2013-02-19 17:12:00,57.2,15.3,29.79,SSE,161,3.0,13.0,19,0.00,,,0.00,LWC V2.11 B50,2013-02-20 00:12:00,
2013-02-19 17:17:00,57.0,16.3,29.78,South,185,2.0,12.0,20,0.00,,,0.00,LWC V2.11 B50,2013-02-20 00:17:00,
2013-02-19 17:22:00,56.8,17.3,29.78,SSW,205,6.0,11.0,21,0.00,,,0.00,LWC V2.11 B50,2013-02-20 00:22:00,
2013-02-19 17:27:00,56.7,18.3,29.78,South,178,4.0,11.0,22,0.00,,,0.00,LWC V2.11 B50,2013-02-20 00:27:00,
2013-02-19 17:32:00,56.5,21.1,29.78,SSW,193,5.0,12.0,25,0.00,,,0.00,LWC V2.11 B50,2013-02-20 00:32:00,
2013-02-19 17:37:00,56.1,21.7,29.77,SSE,166,3.0,12.0,26,0.00,,,0.00,LWC V2.11 B50,2013-02-20 00:37:00,
2013-02-19 17:42:00,55.9,21.5,29.77,South,178,5.0,14.0,26,0.00,,,0.00,LWC V2.11 B50,2013-02-20 00:42:00,
2013-02-19 17:47:00,55.7,22.2,29.77,South,173,7.0,13.0,27,0.00,,,0.00,LWC V2.11 B50,2013-02-20 00:47:00,
2013-02-19 17:52:00,55.6,21.3,29.77,SSE,152,4.0,15.0,26,0.00,,,0.00,LWC V2.11 B50,2013-02-20 00:52:00,
2013-02-19 17:57:00,55.5,21.2,29.78,South,178,6.0,7.0,26,0.00,,,0.00,LWC V2.11 B50,2013-02-20 00:57:00,
2013-02-19 18:02:00,55.5,22.1,29.78,SSE,167,5.0,11.0,27,0.00,,,0.00,LWC V2.11 B50,2013-02-20 01:02:00,
2013-02-19 18:07:00,55.4,22.8,29.77,SE,138,9.0,17.0,28,0.00,,,0.00,LWC V2.11 B50,2013-02-20 01:07:00,
2013-02-19 18:12:00,55.2,23.5,29.78,South,190,7.0,11.0,29,0.00,,,0.00,LWC V2.11 B50,2013-02-20 01:12:00,
2013-02-19 18:17:00,54.9,24.1,29.77,SSW,198,4.0,14.0,30,0.00,,,0.00,LWC V2.11 B50,2013-02-20 01:17:00,
2013-02-19 18:22:00,54.6,25.3,29.77,SSW,192,7.0,12.0,32,0.00,,,0.00,LWC V2.11 B50,2013-02-20 01:22:00,
2013-02-19 18:27:00,54.3,25.8,29.77,West,279,3.0,13.0,33,0.00,,,0.00,LWC V2.11 B50,2013-02-20 01:27:00,
2013-02-19 18:32:00,54.1,26.4,29.77,South,171,6.0,13.0,34,0.00,,,0.00,LWC V2.11 B50,2013-02-20 01:32:00,
2013-02-19 18:37:00,53.9,27.6,29.77,SSW,213,6.0,15.0,36,0.00,,,0.00,LWC V2.11 B50,2013-02-20 01:37:00,
2013-02-19 18:42:00,53.7,27.4,29.77,South,170,8.0,14.0,36,0.00,,,0.00,LWC V2.11 B50,2013-02-20 01:42:00,
2013-02-19 18:47:00,53.5,27.9,29.77,SSE,159,7.0,13.0,37,0.00,,,0.00,LWC V2.11 B50,2013-02-20 01:47:00,
2013-02-19 18:52:00,53.4,29.1,29.77,SSE,147,3.0,12.0,39,0.00,,,0.00,LWC V2.11 B50,2013-02-20 01:52:00,
2013-02-19 18:57:00,53.1,30.0,29.77,South,178,9.0,13.0,41,0.00,,,0.00,LWC V2.11 B50,2013-02-20 01:57:00,
2013-02-19 19:02:00,53.0,30.5,29.77,SE,134,9.0,10.0,42,0.00,,,0.00,LWC V2.11 B50,2013-02-20 02:02:00,
2013-02-19 19:07:00,52.7,31.4,29.77,SSW,204,6.0,15.0,44,0.00,,,0.00,LWC V2.11 B50,2013-02-20 02:07:00,
2013-02-19 19:12:00,52.5,31.2,29.77,SSW,202,5.0,13.0,44,0.00,,,0.00,LWC V2.11 B50,2013-02-20 02:12:00,
2013-02-19 19:17:00,52.3,32.1,29.77,ESE,114,13.0,14.0,46,0.00,,,0.00,LWC V2.11 B50,2013-02-20 02:17:00,
2013-02-19 19:22:00,52.1,32.5,29.77,SE,131,6.0,12.0,47,0.00,,,0.00,LWC V2.11 B50,2013-02-20 02:22:00,
2013-02-19 19:27:00,51.9,34.3,29.76,WSW,242,8.0,17.0,51,0.00,,,0.00,LWC V2.11 B50,2013-02-20 02:27:00,
2013-02-19 19:32:00,51.5,34.0,29.77,South,176,5.0,9.0,51,0.00,,,0.00,LWC V2.11 B50,2013-02-20 02:32:00,
2013-02-19 19:37:00,51.4,33.9,29.77,SSW,207,4.0,13.0,51,0.00,,,0.00,LWC V2.11 B50,2013-02-20 02:37:00,
2013-02-19 19:42:00,51.3,33.8,29.77,SSW,194,7.0,11.0,51,0.00,,,0.00,LWC V2.11 B50,2013-02-20 02:42:00,
2013-02-19 19:47:00,51.2,33.7,29.77,SW,223,1.0,12.0,51,0.00,,,0.00,LWC V2.11 B50,2013-02-20 02:47:00,
2013-02-19 19:52:00,51.2,33.7,29.77,SSW,196,6.0,15.0,51,0.00,,,0.00,LWC V2.11 B50,2013-02-20 02:52:00,
2013-02-19 19:57:00,51.0,33.5,29.77,South,189,5.0,11.0,51,0.00,,,0.00,LWC V2.11 B50,2013-02-20 02:57:00,
2013-02-19 20:02:00,50.9,33.4,29.77,SW,223,2.0,12.0,51,0.00,,,0.00,LWC V2.11 B50,2013-02-20 03:02:00,
2013-02-19 20:07:00,50.8,33.3,29.77,SSW,196,5.0,9.0,51,0.00,,,0.00,LWC V2.11 B50,2013-02-20 03:07:00,
2013-02-19 20:12:00,50.6,33.1,29.77,SSW,192,4.0,7.0,51,0.00,,,0.00,LWC V2.11 B50,2013-02-20 03:12:00,
2013-02-19 20:17:00,50.5,33.1,29.77,South,180,4.0,10.0,51,0.00,,,0.00,LWC V2.11 B50,2013-02-20 03:17:00,
2013-02-19 20:22:00,50.4,33.4,29.77,West,259,4.0,15.0,52,0.00,,,0.00,LWC V2.11 B50,2013-02-20 03:22:00,
2013-02-19 20:27:00,50.2,33.3,29.77,WSW,253,3.0,9.0,52,0.00,,,0.00,LWC V2.11 B50,2013-02-20 03:27:00,
2013-02-19 20:32:00,49.9,33.5,29.77,SW,223,4.0,13.0,53,0.00,,,0.00,LWC V2.11 B50,2013-02-20 03:32:00,
2013-02-19 20:37:00,49.7,33.7,29.77,SW,221,5.0,7.0,54,0.00,,,0.00,LWC V2.11 B50,2013-02-20 03:37:00,
2013-02-19 20:42:00,49.6,33.6,29.77,SSE,162,5.0,9.0,54,0.00,,,0.00,LWC V2.11 B50,2013-02-20 03:42:00,
2013-02-19 20:47:00,49.4,33.9,29.77,SSW,208,9.0,10.0,55,0.00,,,0.00,LWC V2.11 B50,2013-02-20 03:47:00,
2013-02-19 20:52:00,49.4,33.9,29.78,SW,231,1.0,10.0,55,0.00,,,0.00,LWC V2.11 B50,2013-02-20 03:52:00,
2013-02-19 20:57:00,49.3,34.3,29.77,SSW,210,7.0,8.0,56,0.00,,,0.00,LWC V2.11 B50,2013-02-20 03:57:00,
2013-02-19 21:02:00,49.3,34.3,29.77,WSW,244,3.0,8.0,56,0.00,,,0.00,LWC V2.11 B50,2013-02-20 04:02:00,
2013-02-19 21:07:00,49.2,34.2,29.78,South,187,3.0,9.0,56,0.00,,,0.00,LWC V2.11 B50,2013-02-20 04:07:00,
2013-02-19 21:12:00,49.2,34.2,29.78,West,259,2.0,8.0,56,0.00,,,0.00,LWC V2.11 B50,2013-02-20 04:12:00,
2013-02-19 21:17:00,49.2,34.2,29.78,SSW,206,2.0,10.0,56,0.00,,,0.00,LWC V2.11 B50,2013-02-20 04:17:00,
2013-02-19 21:22:00,49.1,34.5,29.78,SSW,195,2.0,3.0,57,0.00,,,0.00,LWC V2.11 B50,2013-02-20 04:22:00,
2013-02-19 21:27:00,49.0,34.4,29.78,SSW,205,4.0,7.0,57,0.00,,,0.00,LWC V2.11 B50,2013-02-20 04:27:00,
2013-02-19 21:32:00,48.8,34.7,29.78,South,190,7.0,8.0,58,0.00,,,0.00,LWC V2.11 B50,2013-02-20 04:32:00,
2013-02-19 21:37:00,48.6,34.9,29.78,South,186,0.0,7.0,59,0.00,,,0.00,LWC V2.11 B50,2013-02-20 04:37:00,
2013-02-19 21:42:00,48.4,34.7,29.77,SSW,207,7.0,9.0,59,0.00,,,0.00,LWC V2.11 B50,2013-02-20 04:42:00,
2013-02-19 21:47:00,48.1,34.9,29.77,SSW,204,2.0,12.0,60,0.00,,,0.00,LWC V2.11 B50,2013-02-20 04:47:00,
2013-02-19 21:52:00,47.9,35.5,29.77,SSW,206,4.0,9.0,62,0.00,,,0.00,LWC V2.11 B50,2013-02-20 04:52:00,
2013-02-19 21:57:00,47.6,35.6,29.77,WNW,287,4.0,14.0,63,0.00,,,0.00,LWC V2.11 B50,2013-02-20 04:57:00,
2013-02-19 22:00:00,47.4,35.4,29.78,SSE,157,7.0,9.0,63,0.00,,,0.00,LWC V2.11 B50,2013-02-20 05:00:00,
2013-02-19 22:05:00,47.2,35.7,29.77,South,188,3.0,8.0,64,0.00,,,0.00,LWC V2.11 B50,2013-02-20 05:05:00,
2013-02-19 22:10:00,46.9,35.8,29.77,SSW,202,5.0,9.0,65,0.00,,,0.00,LWC V2.11 B50,2013-02-20 05:10:00,
2013-02-19 22:15:00,46.7,35.6,29.77,SW,223,5.0,8.0,65,0.00,,,0.00,LWC V2.11 B50,2013-02-20 05:15:00,
2013-02-19 22:20:00,46.5,35.4,29.77,SW,235,6.0,9.0,65,0.00,,,0.00,LWC V2.11 B50,2013-02-20 05:20:00,
2013-02-19 22:25:00,46.4,35.7,29.77,South,186,3.0,9.0,66,0.00,,,0.00,LWC V2.11 B50,2013-02-20 05:25:00,
2013-02-19 22:30:00,46.3,35.6,29.77,SSW,198,2.0,7.0,66,0.00,,,0.00,LWC V2.11 B50,2013-02-20 05:30:00,
2013-02-19 22:35:00,46.2,35.5,29.77,SSW,206,2.0,5.0,66,0.00,,,0.00,LWC V2.11 B50,2013-02-20 05:35:00,
2013-02-19 22:40:00,46.1,35.8,29.77,South,177,2.0,7.0,67,0.00,,,0.00,LWC V2.11 B50,2013-02-20 05:40:00,
2013-02-19 22:45:00,46.0,35.7,29.77,South,179,4.0,7.0,67,0.00,,,0.00,LWC V2.11 B50,2013-02-20 05:45:00,
2013-02-19 22:50:00,46.0,35.7,29.77,SW,226,2.0,8.0,67,0.00,,,0.00,LWC V2.11 B50,2013-02-20 05:50:00,
2013-02-19 22:55:00,46.0,35.7,29.76,SW,236,3.0,11.0,67,0.00,,,0.00,LWC V2.11 B50,2013-02-20 05:55:00,
2013-02-19 23:00:00,46.1,35.8,29.77,South,182,5.0,9.0,67,0.00,,,0.00,LWC V2.11 B50,2013-02-20 06:00:00,
2013-02-19 23:05:00,46.0,35.7,29.76,SSE,163,4.0,8.0,67,0.00,,,0.00,LWC V2.11 B50,2013-02-20 06:05:00,
2013-02-19 23:10:00,45.9,35.6,29.77,West,279,2.0,9.0,67,0.00,,,0.00,LWC V2.11 B50,2013-02-20 06:10:00,
2013-02-19 23:15:00,45.8,35.5,29.76,SW,222,8.0,8.0,67,0.00,,,0.00,LWC V2.11 B50,2013-02-20 06:15:00,
2013-02-19 23:20:00,45.7,35.8,29.76,SSW,213,1.0,6.0,68,0.00,,,0.00,LWC V2.11 B50,2013-02-20 06:20:00,
2013-02-19 23:25:00,45.5,35.6,29.76,SW,232,3.0,5.0,68,0.00,,,0.00,LWC V2.11 B50,2013-02-20 06:25:00,
2013-02-19 23:30:00,45.4,35.5,29.75,South,183,2.0,7.0,68,0.00,,,0.00,LWC V2.11 B50,2013-02-20 06:30:00,
2013-02-19 23:35:00,45.4,35.5,29.75,SSW,194,1.0,3.0,68,0.00,,,0.00,LWC V2.11 B50,2013-02-20 06:35:00,
2013-02-19 23:40:00,45.2,35.6,29.75,SW,222,5.0,10.0,69,0.00,,,0.00,LWC V2.11 B50,2013-02-20 06:40:00,
2013-02-19 23:45:00,45.2,35.6,29.75,SSE,167,2.0,9.0,69,0.00,,,0.00,LWC V2.11 B50,2013-02-20 06:45:00,
2013-02-19 23:50:00,45.1,35.5,29.75,SW,218,6.0,6.0,69,0.00,,,0.00,LWC V2.11 B50,2013-02-20 06:50:00,
2013-02-19 23:55:00,45.0,35.8,29.75,South,173,1.0,9.0,70,0.00,,,0.00,LWC V2.11 B50,2013-02-20 06:55:00,